Multibeam Report for MV1011


Ship Name: Melville
Chief Scientist: Hodgkiss, William
Scripps Institution of Oceanography
Source Organization: UNOLS R2R
Start Date: 2010-09-08
End Date: 2010-09-19


View ISO Metadata

Visit the full NCEI Bathymetry Viewer


Multibeam Bathymetry

Cruise Details

Project: Long Range Acoustic Communications Experiment (LRA
Instrument: Simrad EM122

Data Quality

Number of Files: 493
Number of Records: 132397
BATHYMETRY DATA Quantity Percentage
Number of Beams 57195504 100%
Number of Good Beams 51648222 90.3%
Number of Zero Beams 0 0%
Number of Flagged Beams 5547282 9.7%

Navigation Totals

Total Time: 241.9506 hours
Total Track Length: 2340.6529 km
Average Speed: 9.674 km/hr (5.2235 knots)

Cruise Bounds

Northern Extent: 34.239803
Southern Extent: 31.164398
Western Extent: -129.07834
Eastern Extent: -118.315865

Limits

Minimum Sonar Depth 3.523 Maximum Sonar Depth 7.5503
Minimum Altitude 0 Maximum Altitude 5099.8784
Minimum Depth 4.7953 Maximum Depth 5858.7935

File Information

Full Resolution Bathymetry as collected (raw): 491

Files File Size Description
0000_20100908_204207_Melville.all.mb58.gz 3.04MB Kongsberg multibeam vendor format
0001_20100908_204555_Melville.all.mb58.gz 37.75MB Kongsberg multibeam vendor format
0002_20100908_211555_Melville.all.mb58.gz 37.62MB Kongsberg multibeam vendor format
0003_20100908_214558_Melville.all.mb58.gz 37.09MB Kongsberg multibeam vendor format
0004_20100908_221554_Melville.all.mb58.gz 36.62MB Kongsberg multibeam vendor format
0005_20100908_224554_Melville.all.mb58.gz 39.94MB Kongsberg multibeam vendor format
0006_20100908_231556_Melville.all.mb58.gz 38.09MB Kongsberg multibeam vendor format
0007_20100908_234557_Melville.all.mb58.gz 38.40MB Kongsberg multibeam vendor format
0008_20100909_001556_Melville.all.mb58.gz 38.07MB Kongsberg multibeam vendor format
0009_20100909_004554_Melville.all.mb58.gz 38.09MB Kongsberg multibeam vendor format
0010_20100909_011556_Melville.all.mb58.gz 37.47MB Kongsberg multibeam vendor format
0011_20100909_014554_Melville.all.mb58.gz 37.72MB Kongsberg multibeam vendor format
0012_20100909_021557_Melville.all.mb58.gz 42.10MB Kongsberg multibeam vendor format
0013_20100909_024555_Melville.all.mb58.gz 83.65MB Kongsberg multibeam vendor format
0014_20100909_031554_Melville.all.mb58.gz 84.67MB Kongsberg multibeam vendor format
0015_20100909_034554_Melville.all.mb58.gz 43.57MB Kongsberg multibeam vendor format
0016_20100909_041555_Melville.all.mb58.gz 39.37MB Kongsberg multibeam vendor format
0017_20100909_044556_Melville.all.mb58.gz 37.29MB Kongsberg multibeam vendor format
0018_20100909_051558_Melville.all.mb58.gz 39.58MB Kongsberg multibeam vendor format
0019_20100909_054556_Melville.all.mb58.gz 38.08MB Kongsberg multibeam vendor format
0020_20100909_061557_Melville.all.mb58.gz 38.52MB Kongsberg multibeam vendor format
0021_20100909_064554_Melville.all.mb58.gz 36.56MB Kongsberg multibeam vendor format
0022_20100909_071557_Melville.all.mb58.gz 46.50MB Kongsberg multibeam vendor format
0023_20100909_074558_Melville.all.mb58.gz 41.97MB Kongsberg multibeam vendor format
0024_20100909_081600_Melville.all.mb58.gz 42.06MB Kongsberg multibeam vendor format
0025_20100909_084600_Melville.all.mb58.gz 42.70MB Kongsberg multibeam vendor format
0026_20100909_091603_Melville.all.mb58.gz 42.10MB Kongsberg multibeam vendor format
0027_20100909_094555_Melville.all.mb58.gz 42.56MB Kongsberg multibeam vendor format
0028_20100909_101556_Melville.all.mb58.gz 42.28MB Kongsberg multibeam vendor format
0029_20100909_104559_Melville.all.mb58.gz 42.15MB Kongsberg multibeam vendor format
0030_20100909_111602_Melville.all.mb58.gz 41.33MB Kongsberg multibeam vendor format
0031_20100909_114600_Melville.all.mb58.gz 40.91MB Kongsberg multibeam vendor format
0032_20100909_121557_Melville.all.mb58.gz 41.37MB Kongsberg multibeam vendor format
0033_20100909_124605_Melville.all.mb58.gz 41.31MB Kongsberg multibeam vendor format
0034_20100909_131555_Melville.all.mb58.gz 41.06MB Kongsberg multibeam vendor format
0035_20100909_134605_Melville.all.mb58.gz 40.24MB Kongsberg multibeam vendor format
0036_20100909_141558_Melville.all.mb58.gz 40.52MB Kongsberg multibeam vendor format
0037_20100909_144553_Melville.all.mb58.gz 40.52MB Kongsberg multibeam vendor format
0038_20100909_151604_Melville.all.mb58.gz 40.05MB Kongsberg multibeam vendor format
0039_20100909_154556_Melville.all.mb58.gz 39.96MB Kongsberg multibeam vendor format
0040_20100909_161606_Melville.all.mb58.gz 39.97MB Kongsberg multibeam vendor format
0041_20100909_164602_Melville.all.mb58.gz 39.95MB Kongsberg multibeam vendor format
0042_20100909_171605_Melville.all.mb58.gz 39.85MB Kongsberg multibeam vendor format
0043_20100909_174554_Melville.all.mb58.gz 40.10MB Kongsberg multibeam vendor format
0044_20100909_181553_Melville.all.mb58.gz 40.38MB Kongsberg multibeam vendor format
0045_20100909_184604_Melville.all.mb58.gz 39.78MB Kongsberg multibeam vendor format
0046_20100909_191600_Melville.all.mb58.gz 39.32MB Kongsberg multibeam vendor format
0047_20100909_194604_Melville.all.mb58.gz 40.58MB Kongsberg multibeam vendor format
0048_20100909_201603_Melville.all.mb58.gz 38.85MB Kongsberg multibeam vendor format
0049_20100909_204555_Melville.all.mb58.gz 39.65MB Kongsberg multibeam vendor format
0050_20100909_211554_Melville.all.mb58.gz 38.85MB Kongsberg multibeam vendor format
0051_20100909_214555_Melville.all.mb58.gz 39.36MB Kongsberg multibeam vendor format
0052_20100909_221559_Melville.all.mb58.gz 40.32MB Kongsberg multibeam vendor format
0053_20100909_224559_Melville.all.mb58.gz 40.62MB Kongsberg multibeam vendor format
0054_20100909_231600_Melville.all.mb58.gz 38.20MB Kongsberg multibeam vendor format
0055_20100909_234602_Melville.all.mb58.gz 38.68MB Kongsberg multibeam vendor format
0056_20100910_001610_Melville.all.mb58.gz 38.57MB Kongsberg multibeam vendor format
0057_20100910_004557_Melville.all.mb58.gz 39.00MB Kongsberg multibeam vendor format
0058_20100910_011558_Melville.all.mb58.gz 39.52MB Kongsberg multibeam vendor format
0059_20100910_014605_Melville.all.mb58.gz 39.56MB Kongsberg multibeam vendor format
0060_20100910_021606_Melville.all.mb58.gz 39.72MB Kongsberg multibeam vendor format
0061_20100910_024600_Melville.all.mb58.gz 38.99MB Kongsberg multibeam vendor format
0062_20100910_031555_Melville.all.mb58.gz 40.55MB Kongsberg multibeam vendor format
0063_20100910_034603_Melville.all.mb58.gz 38.70MB Kongsberg multibeam vendor format
0064_20100910_041554_Melville.all.mb58.gz 38.12MB Kongsberg multibeam vendor format
0065_20100910_044552_Melville.all.mb58.gz 38.82MB Kongsberg multibeam vendor format
0066_20100910_051556_Melville.all.mb58.gz 38.07MB Kongsberg multibeam vendor format
0067_20100910_054554_Melville.all.mb58.gz 38.54MB Kongsberg multibeam vendor format
0068_20100910_061604_Melville.all.mb58.gz 38.76MB Kongsberg multibeam vendor format
0069_20100910_064554_Melville.all.mb58.gz 41.70MB Kongsberg multibeam vendor format
0070_20100910_071552_Melville.all.mb58.gz 40.97MB Kongsberg multibeam vendor format
0071_20100910_074601_Melville.all.mb58.gz 40.23MB Kongsberg multibeam vendor format
0072_20100910_081607_Melville.all.mb58.gz 39.55MB Kongsberg multibeam vendor format
0073_20100910_084557_Melville.all.mb58.gz 41.57MB Kongsberg multibeam vendor format
0074_20100910_091600_Melville.all.mb58.gz 40.38MB Kongsberg multibeam vendor format
0075_20100910_094601_Melville.all.mb58.gz 40.14MB Kongsberg multibeam vendor format
0076_20100910_101558_Melville.all.mb58.gz 41.92MB Kongsberg multibeam vendor format
0077_20100910_104555_Melville.all.mb58.gz 42.19MB Kongsberg multibeam vendor format
0078_20100910_111602_Melville.all.mb58.gz 41.52MB Kongsberg multibeam vendor format
0079_20100910_114557_Melville.all.mb58.gz 41.59MB Kongsberg multibeam vendor format
0080_20100910_121556_Melville.all.mb58.gz 41.98MB Kongsberg multibeam vendor format
0081_20100910_124557_Melville.all.mb58.gz 41.45MB Kongsberg multibeam vendor format
0082_20100910_131552_Melville.all.mb58.gz 40.65MB Kongsberg multibeam vendor format
0083_20100910_134607_Melville.all.mb58.gz 38.63MB Kongsberg multibeam vendor format
0084_20100910_141607_Melville.all.mb58.gz 41.17MB Kongsberg multibeam vendor format
0085_20100910_144559_Melville.all.mb58.gz 41.81MB Kongsberg multibeam vendor format
0086_20100910_151558_Melville.all.mb58.gz 41.48MB Kongsberg multibeam vendor format
0087_20100910_154553_Melville.all.mb58.gz 42.49MB Kongsberg multibeam vendor format
0088_20100910_161556_Melville.all.mb58.gz 41.61MB Kongsberg multibeam vendor format
0089_20100910_164600_Melville.all.mb58.gz 42.00MB Kongsberg multibeam vendor format
0090_20100910_171554_Melville.all.mb58.gz 42.51MB Kongsberg multibeam vendor format
0091_20100910_174559_Melville.all.mb58.gz 42.40MB Kongsberg multibeam vendor format
0092_20100910_181557_Melville.all.mb58.gz 42.24MB Kongsberg multibeam vendor format
0093_20100910_184553_Melville.all.mb58.gz 41.90MB Kongsberg multibeam vendor format
0094_20100910_191605_Melville.all.mb58.gz 38.84MB Kongsberg multibeam vendor format
0095_20100910_194556_Melville.all.mb58.gz 39.21MB Kongsberg multibeam vendor format
0096_20100910_201552_Melville.all.mb58.gz 40.19MB Kongsberg multibeam vendor format
0097_20100910_204600_Melville.all.mb58.gz 40.09MB Kongsberg multibeam vendor format
0098_20100910_211555_Melville.all.mb58.gz 40.14MB Kongsberg multibeam vendor format
0099_20100910_214601_Melville.all.mb58.gz 40.34MB Kongsberg multibeam vendor format
0100_20100910_221557_Melville.all.mb58.gz 40.32MB Kongsberg multibeam vendor format
0101_20100910_224556_Melville.all.mb58.gz 40.37MB Kongsberg multibeam vendor format
0102_20100910_231554_Melville.all.mb58.gz 39.26MB Kongsberg multibeam vendor format
0103_20100910_234615_Melville.all.mb58.gz 3.09MB Kongsberg multibeam vendor format
0104_20100910_235840_Melville.all.mb58.gz 39.52MB Kongsberg multibeam vendor format
0105_20100911_002842_Melville.all.mb58.gz 40.15MB Kongsberg multibeam vendor format
0106_20100911_005839_Melville.all.mb58.gz 41.62MB Kongsberg multibeam vendor format
0107_20100911_012844_Melville.all.mb58.gz 41.60MB Kongsberg multibeam vendor format
0108_20100911_015847_Melville.all.mb58.gz 41.37MB Kongsberg multibeam vendor format
0109_20100911_022846_Melville.all.mb58.gz 39.67MB Kongsberg multibeam vendor format
0110_20100911_025836_Melville.all.mb58.gz 40.99MB Kongsberg multibeam vendor format
0111_20100911_032840_Melville.all.mb58.gz 40.35MB Kongsberg multibeam vendor format
0112_20100911_035840_Melville.all.mb58.gz 40.78MB Kongsberg multibeam vendor format
0113_20100911_042846_Melville.all.mb58.gz 40.83MB Kongsberg multibeam vendor format
0114_20100911_045846_Melville.all.mb58.gz 40.38MB Kongsberg multibeam vendor format
0115_20100911_052846_Melville.all.mb58.gz 40.83MB Kongsberg multibeam vendor format
0116_20100911_055838_Melville.all.mb58.gz 41.05MB Kongsberg multibeam vendor format
0117_20100911_062845_Melville.all.mb58.gz 40.88MB Kongsberg multibeam vendor format
0118_20100911_065839_Melville.all.mb58.gz 40.75MB Kongsberg multibeam vendor format
0119_20100911_072844_Melville.all.mb58.gz 40.91MB Kongsberg multibeam vendor format
0120_20100911_075842_Melville.all.mb58.gz 40.88MB Kongsberg multibeam vendor format
0121_20100911_082840_Melville.all.mb58.gz 40.70MB Kongsberg multibeam vendor format
0122_20100911_085838_Melville.all.mb58.gz 40.71MB Kongsberg multibeam vendor format
0123_20100911_092835_Melville.all.mb58.gz 40.26MB Kongsberg multibeam vendor format
0124_20100911_095842_Melville.all.mb58.gz 40.46MB Kongsberg multibeam vendor format
0125_20100911_102839_Melville.all.mb58.gz 40.92MB Kongsberg multibeam vendor format
0126_20100911_105841_Melville.all.mb58.gz 40.28MB Kongsberg multibeam vendor format
0127_20100911_112834_Melville.all.mb58.gz 40.43MB Kongsberg multibeam vendor format
0128_20100911_115839_Melville.all.mb58.gz 40.61MB Kongsberg multibeam vendor format
0129_20100911_122843_Melville.all.mb58.gz 40.12MB Kongsberg multibeam vendor format
0130_20100911_125847_Melville.all.mb58.gz 40.76MB Kongsberg multibeam vendor format
0131_20100911_132843_Melville.all.mb58.gz 40.15MB Kongsberg multibeam vendor format
0132_20100911_135838_Melville.all.mb58.gz 40.82MB Kongsberg multibeam vendor format
0133_20100911_142838_Melville.all.mb58.gz 41.63MB Kongsberg multibeam vendor format
0134_20100911_145838_Melville.all.mb58.gz 41.57MB Kongsberg multibeam vendor format
0135_20100911_152845_Melville.all.mb58.gz 41.02MB Kongsberg multibeam vendor format
0136_20100911_155841_Melville.all.mb58.gz 40.89MB Kongsberg multibeam vendor format
0137_20100911_162844_Melville.all.mb58.gz 40.81MB Kongsberg multibeam vendor format
0138_20100911_165838_Melville.all.mb58.gz 41.38MB Kongsberg multibeam vendor format
0139_20100911_172845_Melville.all.mb58.gz 41.32MB Kongsberg multibeam vendor format
0140_20100911_175835_Melville.all.mb58.gz 40.05MB Kongsberg multibeam vendor format
0141_20100911_182837_Melville.all.mb58.gz 41.64MB Kongsberg multibeam vendor format
0142_20100911_185847_Melville.all.mb58.gz 42.13MB Kongsberg multibeam vendor format
0143_20100911_192842_Melville.all.mb58.gz 42.65MB Kongsberg multibeam vendor format
0144_20100911_195843_Melville.all.mb58.gz 42.38MB Kongsberg multibeam vendor format
0145_20100911_202835_Melville.all.mb58.gz 42.28MB Kongsberg multibeam vendor format
0146_20100911_205836_Melville.all.mb58.gz 43.86MB Kongsberg multibeam vendor format
0147_20100911_212844_Melville.all.mb58.gz 42.61MB Kongsberg multibeam vendor format
0148_20100911_215837_Melville.all.mb58.gz 41.87MB Kongsberg multibeam vendor format
0149_20100911_222839_Melville.all.mb58.gz 41.43MB Kongsberg multibeam vendor format
0150_20100911_225837_Melville.all.mb58.gz 41.33MB Kongsberg multibeam vendor format
0151_20100911_232838_Melville.all.mb58.gz 40.97MB Kongsberg multibeam vendor format
0152_20100911_235847_Melville.all.mb58.gz 40.32MB Kongsberg multibeam vendor format
0153_20100912_002846_Melville.all.mb58.gz 40.14MB Kongsberg multibeam vendor format
0154_20100912_005845_Melville.all.mb58.gz 41.15MB Kongsberg multibeam vendor format
0155_20100912_012843_Melville.all.mb58.gz 41.08MB Kongsberg multibeam vendor format
0156_20100912_015844_Melville.all.mb58.gz 40.98MB Kongsberg multibeam vendor format
0157_20100912_022844_Melville.all.mb58.gz 39.14MB Kongsberg multibeam vendor format
0158_20100912_025846_Melville.all.mb58.gz 38.14MB Kongsberg multibeam vendor format
0159_20100912_032848_Melville.all.mb58.gz 38.15MB Kongsberg multibeam vendor format
0160_20100912_035845_Melville.all.mb58.gz 38.53MB Kongsberg multibeam vendor format
0161_20100912_042844_Melville.all.mb58.gz 38.74MB Kongsberg multibeam vendor format
0162_20100912_045844_Melville.all.mb58.gz 39.52MB Kongsberg multibeam vendor format
0163_20100912_052843_Melville.all.mb58.gz 39.78MB Kongsberg multibeam vendor format
0164_20100912_055849_Melville.all.mb58.gz 37.82MB Kongsberg multibeam vendor format
0165_20100912_062846_Melville.all.mb58.gz 38.04MB Kongsberg multibeam vendor format
0166_20100912_065847_Melville.all.mb58.gz 40.06MB Kongsberg multibeam vendor format
0167_20100912_072840_Melville.all.mb58.gz 40.99MB Kongsberg multibeam vendor format
0168_20100912_075847_Melville.all.mb58.gz 41.04MB Kongsberg multibeam vendor format
0169_20100912_082846_Melville.all.mb58.gz 40.89MB Kongsberg multibeam vendor format
0170_20100912_085845_Melville.all.mb58.gz 40.38MB Kongsberg multibeam vendor format
0171_20100912_092844_Melville.all.mb58.gz 40.53MB Kongsberg multibeam vendor format
0172_20100912_095844_Melville.all.mb58.gz 40.80MB Kongsberg multibeam vendor format
0173_20100912_102842_Melville.all.mb58.gz 40.67MB Kongsberg multibeam vendor format
0174_20100912_105845_Melville.all.mb58.gz 40.03MB Kongsberg multibeam vendor format
0175_20100912_112848_Melville.all.mb58.gz 39.91MB Kongsberg multibeam vendor format
0176_20100912_115845_Melville.all.mb58.gz 39.90MB Kongsberg multibeam vendor format
0177_20100912_122836_Melville.all.mb58.gz 39.30MB Kongsberg multibeam vendor format
0178_20100912_125851_Melville.all.mb58.gz 38.30MB Kongsberg multibeam vendor format
0179_20100912_132847_Melville.all.mb58.gz 38.25MB Kongsberg multibeam vendor format
0180_20100912_135843_Melville.all.mb58.gz 38.22MB Kongsberg multibeam vendor format
0181_20100912_142844_Melville.all.mb58.gz 38.25MB Kongsberg multibeam vendor format
0182_20100912_145843_Melville.all.mb58.gz 37.67MB Kongsberg multibeam vendor format
0183_20100912_152848_Melville.all.mb58.gz 37.93MB Kongsberg multibeam vendor format
0184_20100912_155847_Melville.all.mb58.gz 38.13MB Kongsberg multibeam vendor format
0185_20100912_162846_Melville.all.mb58.gz 38.50MB Kongsberg multibeam vendor format
0186_20100912_165847_Melville.all.mb58.gz 39.46MB Kongsberg multibeam vendor format
0187_20100912_172840_Melville.all.mb58.gz 38.90MB Kongsberg multibeam vendor format
0188_20100912_175849_Melville.all.mb58.gz 38.12MB Kongsberg multibeam vendor format
0189_20100912_182838_Melville.all.mb58.gz 37.70MB Kongsberg multibeam vendor format
0190_20100912_185835_Melville.all.mb58.gz 37.97MB Kongsberg multibeam vendor format
0191_20100912_192844_Melville.all.mb58.gz 38.25MB Kongsberg multibeam vendor format
0192_20100912_195849_Melville.all.mb58.gz 39.02MB Kongsberg multibeam vendor format
0193_20100912_202836_Melville.all.mb58.gz 40.10MB Kongsberg multibeam vendor format
0194_20100912_205846_Melville.all.mb58.gz 39.60MB Kongsberg multibeam vendor format
0195_20100912_212841_Melville.all.mb58.gz 39.46MB Kongsberg multibeam vendor format
0196_20100912_215834_Melville.all.mb58.gz 39.03MB Kongsberg multibeam vendor format
0197_20100912_222848_Melville.all.mb58.gz 38.78MB Kongsberg multibeam vendor format
0198_20100912_225841_Melville.all.mb58.gz 39.22MB Kongsberg multibeam vendor format
0199_20100912_232842_Melville.all.mb58.gz 39.35MB Kongsberg multibeam vendor format
0200_20100912_235839_Melville.all.mb58.gz 39.61MB Kongsberg multibeam vendor format
0201_20100913_002842_Melville.all.mb58.gz 39.59MB Kongsberg multibeam vendor format
0202_20100913_005836_Melville.all.mb58.gz 39.13MB Kongsberg multibeam vendor format
0203_20100913_012842_Melville.all.mb58.gz 39.85MB Kongsberg multibeam vendor format
0204_20100913_015848_Melville.all.mb58.gz 38.73MB Kongsberg multibeam vendor format
0205_20100913_022836_Melville.all.mb58.gz 39.48MB Kongsberg multibeam vendor format
0206_20100913_025846_Melville.all.mb58.gz 39.08MB Kongsberg multibeam vendor format
0207_20100913_032846_Melville.all.mb58.gz 39.48MB Kongsberg multibeam vendor format
0208_20100913_035846_Melville.all.mb58.gz 39.83MB Kongsberg multibeam vendor format
0209_20100913_042848_Melville.all.mb58.gz 40.07MB Kongsberg multibeam vendor format
0210_20100913_045841_Melville.all.mb58.gz 39.06MB Kongsberg multibeam vendor format
0211_20100913_052839_Melville.all.mb58.gz 39.41MB Kongsberg multibeam vendor format
0212_20100913_055844_Melville.all.mb58.gz 39.14MB Kongsberg multibeam vendor format
0213_20100913_062837_Melville.all.mb58.gz 39.43MB Kongsberg multibeam vendor format
0214_20100913_065835_Melville.all.mb58.gz 40.12MB Kongsberg multibeam vendor format
0215_20100913_072846_Melville.all.mb58.gz 39.57MB Kongsberg multibeam vendor format
0216_20100913_075837_Melville.all.mb58.gz 40.18MB Kongsberg multibeam vendor format
0217_20100913_082837_Melville.all.mb58.gz 39.65MB Kongsberg multibeam vendor format
0218_20100913_085849_Melville.all.mb58.gz 39.56MB Kongsberg multibeam vendor format
0219_20100913_092845_Melville.all.mb58.gz 39.08MB Kongsberg multibeam vendor format
0220_20100913_095834_Melville.all.mb58.gz 39.43MB Kongsberg multibeam vendor format
0221_20100913_102847_Melville.all.mb58.gz 38.66MB Kongsberg multibeam vendor format
0222_20100913_105842_Melville.all.mb58.gz 39.05MB Kongsberg multibeam vendor format
0223_20100913_112837_Melville.all.mb58.gz 39.49MB Kongsberg multibeam vendor format
0224_20100913_115846_Melville.all.mb58.gz 39.56MB Kongsberg multibeam vendor format
0225_20100913_122841_Melville.all.mb58.gz 39.05MB Kongsberg multibeam vendor format
0226_20100913_125848_Melville.all.mb58.gz 38.60MB Kongsberg multibeam vendor format
0227_20100913_132834_Melville.all.mb58.gz 39.16MB Kongsberg multibeam vendor format
0228_20100913_135840_Melville.all.mb58.gz 39.32MB Kongsberg multibeam vendor format
0229_20100913_142845_Melville.all.mb58.gz 39.55MB Kongsberg multibeam vendor format
0230_20100913_145845_Melville.all.mb58.gz 39.68MB Kongsberg multibeam vendor format
0231_20100913_152840_Melville.all.mb58.gz 40.34MB Kongsberg multibeam vendor format
0232_20100913_155844_Melville.all.mb58.gz 39.40MB Kongsberg multibeam vendor format
0233_20100913_162849_Melville.all.mb58.gz 39.49MB Kongsberg multibeam vendor format
0234_20100913_165846_Melville.all.mb58.gz 39.78MB Kongsberg multibeam vendor format
0235_20100913_172840_Melville.all.mb58.gz 39.72MB Kongsberg multibeam vendor format
0236_20100913_175833_Melville.all.mb58.gz 39.60MB Kongsberg multibeam vendor format
0237_20100913_182836_Melville.all.mb58.gz 39.00MB Kongsberg multibeam vendor format
0238_20100913_185837_Melville.all.mb58.gz 38.99MB Kongsberg multibeam vendor format
0239_20100913_192842_Melville.all.mb58.gz 40.65MB Kongsberg multibeam vendor format
0240_20100913_195845_Melville.all.mb58.gz 40.39MB Kongsberg multibeam vendor format
0241_20100913_202833_Melville.all.mb58.gz 40.80MB Kongsberg multibeam vendor format
0242_20100913_205844_Melville.all.mb58.gz 39.60MB Kongsberg multibeam vendor format
0243_20100913_212836_Melville.all.mb58.gz 40.13MB Kongsberg multibeam vendor format
0244_20100913_215842_Melville.all.mb58.gz 40.41MB Kongsberg multibeam vendor format
0245_20100913_222847_Melville.all.mb58.gz 39.93MB Kongsberg multibeam vendor format
0246_20100913_225840_Melville.all.mb58.gz 39.69MB Kongsberg multibeam vendor format
0247_20100913_232839_Melville.all.mb58.gz 39.33MB Kongsberg multibeam vendor format
0248_20100913_235836_Melville.all.mb58.gz 39.23MB Kongsberg multibeam vendor format
0249_20100914_002847_Melville.all.mb58.gz 10.05MB Kongsberg multibeam vendor format
0250_20100914_003948_Melville.all.mb58.gz 39.69MB Kongsberg multibeam vendor format
0251_20100914_011003_Melville.all.mb58.gz 39.11MB Kongsberg multibeam vendor format
0252_20100914_013952_Melville.all.mb58.gz 38.89MB Kongsberg multibeam vendor format
0253_20100914_020952_Melville.all.mb58.gz 39.05MB Kongsberg multibeam vendor format
0254_20100914_024001_Melville.all.mb58.gz 39.15MB Kongsberg multibeam vendor format
0255_20100914_030952_Melville.all.mb58.gz 39.00MB Kongsberg multibeam vendor format
0256_20100914_033956_Melville.all.mb58.gz 39.46MB Kongsberg multibeam vendor format
0257_20100914_041001_Melville.all.mb58.gz 39.27MB Kongsberg multibeam vendor format
0258_20100914_043953_Melville.all.mb58.gz 39.44MB Kongsberg multibeam vendor format
0259_20100914_050952_Melville.all.mb58.gz 39.18MB Kongsberg multibeam vendor format
0260_20100914_053951_Melville.all.mb58.gz 39.69MB Kongsberg multibeam vendor format
0261_20100914_060949_Melville.all.mb58.gz 39.44MB Kongsberg multibeam vendor format
0262_20100914_064001_Melville.all.mb58.gz 39.15MB Kongsberg multibeam vendor format
0263_20100914_071001_Melville.all.mb58.gz 39.28MB Kongsberg multibeam vendor format
0264_20100914_073959_Melville.all.mb58.gz 39.07MB Kongsberg multibeam vendor format
0265_20100914_080953_Melville.all.mb58.gz 39.18MB Kongsberg multibeam vendor format
0266_20100914_084004_Melville.all.mb58.gz 38.99MB Kongsberg multibeam vendor format
0267_20100914_090952_Melville.all.mb58.gz 38.87MB Kongsberg multibeam vendor format
0268_20100914_093949_Melville.all.mb58.gz 39.69MB Kongsberg multibeam vendor format
0269_20100914_100959_Melville.all.mb58.gz 39.16MB Kongsberg multibeam vendor format
0270_20100914_103957_Melville.all.mb58.gz 39.50MB Kongsberg multibeam vendor format
0271_20100914_111005_Melville.all.mb58.gz 39.27MB Kongsberg multibeam vendor format
0272_20100914_113952_Melville.all.mb58.gz 39.34MB Kongsberg multibeam vendor format
0273_20100914_120948_Melville.all.mb58.gz 39.63MB Kongsberg multibeam vendor format
0274_20100914_123953_Melville.all.mb58.gz 39.56MB Kongsberg multibeam vendor format
0275_20100914_130955_Melville.all.mb58.gz 39.69MB Kongsberg multibeam vendor format
0276_20100914_134003_Melville.all.mb58.gz 38.92MB Kongsberg multibeam vendor format
0277_20100914_140952_Melville.all.mb58.gz 39.47MB Kongsberg multibeam vendor format
0278_20100914_143958_Melville.all.mb58.gz 39.50MB Kongsberg multibeam vendor format
0279_20100914_151001_Melville.all.mb58.gz 39.35MB Kongsberg multibeam vendor format
0280_20100914_153951_Melville.all.mb58.gz 39.07MB Kongsberg multibeam vendor format
0281_20100914_160953_Melville.all.mb58.gz 39.43MB Kongsberg multibeam vendor format
0282_20100914_164000_Melville.all.mb58.gz 38.87MB Kongsberg multibeam vendor format
0283_20100914_171004_Melville.all.mb58.gz 37.99MB Kongsberg multibeam vendor format
0284_20100914_173948_Melville.all.mb58.gz 38.52MB Kongsberg multibeam vendor format
0285_20100914_180953_Melville.all.mb58.gz 38.36MB Kongsberg multibeam vendor format
0286_20100914_183950_Melville.all.mb58.gz 38.70MB Kongsberg multibeam vendor format
0287_20100914_191002_Melville.all.mb58.gz 38.88MB Kongsberg multibeam vendor format
0288_20100914_193948_Melville.all.mb58.gz 39.35MB Kongsberg multibeam vendor format
0289_20100914_200954_Melville.all.mb58.gz 38.65MB Kongsberg multibeam vendor format
0290_20100914_204003_Melville.all.mb58.gz 38.06MB Kongsberg multibeam vendor format
0291_20100914_210948_Melville.all.mb58.gz 39.01MB Kongsberg multibeam vendor format
0292_20100914_213959_Melville.all.mb58.gz 39.12MB Kongsberg multibeam vendor format
0293_20100914_220953_Melville.all.mb58.gz 39.44MB Kongsberg multibeam vendor format
0294_20100914_224001_Melville.all.mb58.gz 38.59MB Kongsberg multibeam vendor format
0295_20100914_230955_Melville.all.mb58.gz 38.96MB Kongsberg multibeam vendor format
0296_20100914_233951_Melville.all.mb58.gz 38.67MB Kongsberg multibeam vendor format
0297_20100915_000950_Melville.all.mb58.gz 39.01MB Kongsberg multibeam vendor format
0298_20100915_003953_Melville.all.mb58.gz 39.00MB Kongsberg multibeam vendor format
0299_20100915_010952_Melville.all.mb58.gz 38.52MB Kongsberg multibeam vendor format
0300_20100915_013959_Melville.all.mb58.gz 38.10MB Kongsberg multibeam vendor format
0301_20100915_020953_Melville.all.mb58.gz 38.28MB Kongsberg multibeam vendor format
0302_20100915_023955_Melville.all.mb58.gz 38.39MB Kongsberg multibeam vendor format
0303_20100915_030958_Melville.all.mb58.gz 38.32MB Kongsberg multibeam vendor format
0304_20100915_034002_Melville.all.mb58.gz 38.97MB Kongsberg multibeam vendor format
0305_20100915_040953_Melville.all.mb58.gz 39.45MB Kongsberg multibeam vendor format
0306_20100915_044004_Melville.all.mb58.gz 38.36MB Kongsberg multibeam vendor format
0307_20100915_051000_Melville.all.mb58.gz 38.38MB Kongsberg multibeam vendor format
0308_20100915_053958_Melville.all.mb58.gz 38.58MB Kongsberg multibeam vendor format
0309_20100915_060958_Melville.all.mb58.gz 39.20MB Kongsberg multibeam vendor format
0310_20100915_063956_Melville.all.mb58.gz 39.23MB Kongsberg multibeam vendor format
0311_20100915_070954_Melville.all.mb58.gz 38.98MB Kongsberg multibeam vendor format
0312_20100915_073957_Melville.all.mb58.gz 38.78MB Kongsberg multibeam vendor format
0313_20100915_080958_Melville.all.mb58.gz 38.18MB Kongsberg multibeam vendor format
0314_20100915_083953_Melville.all.mb58.gz 38.16MB Kongsberg multibeam vendor format
0315_20100915_090951_Melville.all.mb58.gz 38.33MB Kongsberg multibeam vendor format
0316_20100915_094002_Melville.all.mb58.gz 38.20MB Kongsberg multibeam vendor format
0317_20100915_100955_Melville.all.mb58.gz 38.44MB Kongsberg multibeam vendor format
0318_20100915_103955_Melville.all.mb58.gz 39.22MB Kongsberg multibeam vendor format
0319_20100915_110949_Melville.all.mb58.gz 39.44MB Kongsberg multibeam vendor format
0320_20100915_114000_Melville.all.mb58.gz 39.32MB Kongsberg multibeam vendor format
0321_20100915_120959_Melville.all.mb58.gz 39.28MB Kongsberg multibeam vendor format
0322_20100915_123953_Melville.all.mb58.gz 39.24MB Kongsberg multibeam vendor format
0323_20100915_130949_Melville.all.mb58.gz 39.69MB Kongsberg multibeam vendor format
0324_20100915_133951_Melville.all.mb58.gz 39.62MB Kongsberg multibeam vendor format
0325_20100915_140955_Melville.all.mb58.gz 39.56MB Kongsberg multibeam vendor format
0326_20100915_143956_Melville.all.mb58.gz 39.42MB Kongsberg multibeam vendor format
0327_20100915_150952_Melville.all.mb58.gz 39.27MB Kongsberg multibeam vendor format
0328_20100915_153946_Melville.all.mb58.gz 39.62MB Kongsberg multibeam vendor format
0329_20100915_160958_Melville.all.mb58.gz 39.54MB Kongsberg multibeam vendor format
0330_20100915_164001_Melville.all.mb58.gz 38.82MB Kongsberg multibeam vendor format
0331_20100915_170948_Melville.all.mb58.gz 39.38MB Kongsberg multibeam vendor format
0332_20100915_173959_Melville.all.mb58.gz 38.89MB Kongsberg multibeam vendor format
0333_20100915_180950_Melville.all.mb58.gz 38.94MB Kongsberg multibeam vendor format
0334_20100915_183946_Melville.all.mb58.gz 38.58MB Kongsberg multibeam vendor format
0335_20100915_190956_Melville.all.mb58.gz 38.34MB Kongsberg multibeam vendor format
0336_20100915_193955_Melville.all.mb58.gz 38.49MB Kongsberg multibeam vendor format
0337_20100915_200957_Melville.all.mb58.gz 38.46MB Kongsberg multibeam vendor format
0338_20100915_204001_Melville.all.mb58.gz 38.27MB Kongsberg multibeam vendor format
0339_20100915_211000_Melville.all.mb58.gz 39.09MB Kongsberg multibeam vendor format
0340_20100915_213955_Melville.all.mb58.gz 39.51MB Kongsberg multibeam vendor format
0341_20100915_220958_Melville.all.mb58.gz 39.27MB Kongsberg multibeam vendor format
0342_20100915_224002_Melville.all.mb58.gz 38.49MB Kongsberg multibeam vendor format
0343_20100915_230955_Melville.all.mb58.gz 39.03MB Kongsberg multibeam vendor format
0344_20100915_233947_Melville.all.mb58.gz 39.52MB Kongsberg multibeam vendor format
0345_20100916_000948_Melville.all.mb58.gz 39.62MB Kongsberg multibeam vendor format
0346_20100916_003953_Melville.all.mb58.gz 39.40MB Kongsberg multibeam vendor format
0347_20100916_010950_Melville.all.mb58.gz 39.67MB Kongsberg multibeam vendor format
0348_20100916_013958_Melville.all.mb58.gz 39.27MB Kongsberg multibeam vendor format
0349_20100916_020950_Melville.all.mb58.gz 39.34MB Kongsberg multibeam vendor format
0350_20100916_023950_Melville.all.mb58.gz 39.34MB Kongsberg multibeam vendor format
0351_20100916_030946_Melville.all.mb58.gz 39.62MB Kongsberg multibeam vendor format
0352_20100916_033957_Melville.all.mb58.gz 39.24MB Kongsberg multibeam vendor format
0353_20100916_040949_Melville.all.mb58.gz 38.95MB Kongsberg multibeam vendor format
0354_20100916_043947_Melville.all.mb58.gz 39.48MB Kongsberg multibeam vendor format
0355_20100916_050958_Melville.all.mb58.gz 38.62MB Kongsberg multibeam vendor format
0356_20100916_053947_Melville.all.mb58.gz 38.57MB Kongsberg multibeam vendor format
0357_20100916_060950_Melville.all.mb58.gz 39.49MB Kongsberg multibeam vendor format
0358_20100916_063949_Melville.all.mb58.gz 39.46MB Kongsberg multibeam vendor format
0359_20100916_070948_Melville.all.mb58.gz 39.69MB Kongsberg multibeam vendor format
0360_20100916_073958_Melville.all.mb58.gz 39.50MB Kongsberg multibeam vendor format
0361_20100916_080959_Melville.all.mb58.gz 39.44MB Kongsberg multibeam vendor format
0362_20100916_084000_Melville.all.mb58.gz 38.62MB Kongsberg multibeam vendor format
0363_20100916_090950_Melville.all.mb58.gz 39.66MB Kongsberg multibeam vendor format
0364_20100916_093956_Melville.all.mb58.gz 38.84MB Kongsberg multibeam vendor format
0365_20100916_100954_Melville.all.mb58.gz 38.86MB Kongsberg multibeam vendor format
0366_20100916_103957_Melville.all.mb58.gz 39.61MB Kongsberg multibeam vendor format
0367_20100916_110959_Melville.all.mb58.gz 39.02MB Kongsberg multibeam vendor format
0368_20100916_113957_Melville.all.mb58.gz 38.81MB Kongsberg multibeam vendor format
0369_20100916_120949_Melville.all.mb58.gz 39.56MB Kongsberg multibeam vendor format
0370_20100916_123959_Melville.all.mb58.gz 39.36MB Kongsberg multibeam vendor format
0371_20100916_131003_Melville.all.mb58.gz 39.34MB Kongsberg multibeam vendor format
0372_20100916_133957_Melville.all.mb58.gz 39.20MB Kongsberg multibeam vendor format
0373_20100916_140955_Melville.all.mb58.gz 38.65MB Kongsberg multibeam vendor format
0374_20100916_143950_Melville.all.mb58.gz 39.32MB Kongsberg multibeam vendor format
0375_20100916_151000_Melville.all.mb58.gz 39.46MB Kongsberg multibeam vendor format
0376_20100916_154000_Melville.all.mb58.gz 39.37MB Kongsberg multibeam vendor format
0377_20100916_160956_Melville.all.mb58.gz 39.85MB Kongsberg multibeam vendor format
0378_20100916_163955_Melville.all.mb58.gz 39.71MB Kongsberg multibeam vendor format
0379_20100916_170956_Melville.all.mb58.gz 39.62MB Kongsberg multibeam vendor format
0380_20100916_173954_Melville.all.mb58.gz 39.35MB Kongsberg multibeam vendor format
0381_20100916_180945_Melville.all.mb58.gz 40.18MB Kongsberg multibeam vendor format
0382_20100916_183957_Melville.all.mb58.gz 39.96MB Kongsberg multibeam vendor format
0383_20100916_190956_Melville.all.mb58.gz 39.91MB Kongsberg multibeam vendor format
0384_20100916_193956_Melville.all.mb58.gz 39.77MB Kongsberg multibeam vendor format
0385_20100916_200949_Melville.all.mb58.gz 39.87MB Kongsberg multibeam vendor format
0386_20100916_203951_Melville.all.mb58.gz 39.77MB Kongsberg multibeam vendor format
0387_20100916_210958_Melville.all.mb58.gz 39.25MB Kongsberg multibeam vendor format
0388_20100916_213946_Melville.all.mb58.gz 39.43MB Kongsberg multibeam vendor format
0389_20100916_220944_Melville.all.mb58.gz 40.52MB Kongsberg multibeam vendor format
0390_20100916_223957_Melville.all.mb58.gz 40.34MB Kongsberg multibeam vendor format
0391_20100916_230954_Melville.all.mb58.gz 40.28MB Kongsberg multibeam vendor format
0392_20100916_233956_Melville.all.mb58.gz 39.27MB Kongsberg multibeam vendor format
0393_20100917_000952_Melville.all.mb58.gz 39.57MB Kongsberg multibeam vendor format
0394_20100917_003950_Melville.all.mb58.gz 39.61MB Kongsberg multibeam vendor format
0395_20100917_010955_Melville.all.mb58.gz 38.72MB Kongsberg multibeam vendor format
0396_20100917_013955_Melville.all.mb58.gz 38.73MB Kongsberg multibeam vendor format
0397_20100917_020949_Melville.all.mb58.gz 39.10MB Kongsberg multibeam vendor format
0398_20100917_023946_Melville.all.mb58.gz 38.88MB Kongsberg multibeam vendor format
0399_20100917_030945_Melville.all.mb58.gz 39.20MB Kongsberg multibeam vendor format
0400_20100917_033954_Melville.all.mb58.gz 38.86MB Kongsberg multibeam vendor format
0401_20100917_040951_Melville.all.mb58.gz 39.27MB Kongsberg multibeam vendor format
0402_20100917_043949_Melville.all.mb58.gz 39.21MB Kongsberg multibeam vendor format
0403_20100917_050952_Melville.all.mb58.gz 39.29MB Kongsberg multibeam vendor format
0404_20100917_053949_Melville.all.mb58.gz 39.42MB Kongsberg multibeam vendor format
0405_20100917_060949_Melville.all.mb58.gz 39.29MB Kongsberg multibeam vendor format
0406_20100917_063954_Melville.all.mb58.gz 39.47MB Kongsberg multibeam vendor format
0407_20100917_070956_Melville.all.mb58.gz 39.56MB Kongsberg multibeam vendor format
0408_20100917_073957_Melville.all.mb58.gz 38.73MB Kongsberg multibeam vendor format
0409_20100917_080945_Melville.all.mb58.gz 39.20MB Kongsberg multibeam vendor format
0410_20100917_084000_Melville.all.mb58.gz 38.93MB Kongsberg multibeam vendor format
0411_20100917_090945_Melville.all.mb58.gz 39.76MB Kongsberg multibeam vendor format
0412_20100917_093958_Melville.all.mb58.gz 39.27MB Kongsberg multibeam vendor format
0413_20100917_100955_Melville.all.mb58.gz 38.99MB Kongsberg multibeam vendor format
0414_20100917_103954_Melville.all.mb58.gz 39.33MB Kongsberg multibeam vendor format
0415_20100917_110947_Melville.all.mb58.gz 39.43MB Kongsberg multibeam vendor format
0416_20100917_113944_Melville.all.mb58.gz 39.66MB Kongsberg multibeam vendor format
0417_20100917_120946_Melville.all.mb58.gz 39.58MB Kongsberg multibeam vendor format
0418_20100917_123944_Melville.all.mb58.gz 39.98MB Kongsberg multibeam vendor format
0419_20100917_130957_Melville.all.mb58.gz 39.25MB Kongsberg multibeam vendor format
0420_20100917_133947_Melville.all.mb58.gz 39.43MB Kongsberg multibeam vendor format
0421_20100917_141001_Melville.all.mb58.gz 38.76MB Kongsberg multibeam vendor format
0422_20100917_143946_Melville.all.mb58.gz 39.98MB Kongsberg multibeam vendor format
0423_20100917_150958_Melville.all.mb58.gz 38.89MB Kongsberg multibeam vendor format
0424_20100917_153947_Melville.all.mb58.gz 39.16MB Kongsberg multibeam vendor format
0425_20100917_160947_Melville.all.mb58.gz 39.55MB Kongsberg multibeam vendor format
0426_20100917_163955_Melville.all.mb58.gz 40.17MB Kongsberg multibeam vendor format
0427_20100917_170958_Melville.all.mb58.gz 40.32MB Kongsberg multibeam vendor format
0428_20100917_173953_Melville.all.mb58.gz 39.09MB Kongsberg multibeam vendor format
0429_20100917_180958_Melville.all.mb58.gz 39.02MB Kongsberg multibeam vendor format
0430_20100917_183947_Melville.all.mb58.gz 38.53MB Kongsberg multibeam vendor format
0431_20100917_190946_Melville.all.mb58.gz 38.85MB Kongsberg multibeam vendor format
0432_20100917_193954_Melville.all.mb58.gz 39.75MB Kongsberg multibeam vendor format
0433_20100917_200950_Melville.all.mb58.gz 39.74MB Kongsberg multibeam vendor format
0434_20100917_203950_Melville.all.mb58.gz 39.82MB Kongsberg multibeam vendor format
0435_20100917_210953_Melville.all.mb58.gz 26.54MB Kongsberg multibeam vendor format
0436_20100917_213954_Melville.all.mb58.gz 26.52MB Kongsberg multibeam vendor format
0437_20100917_220956_Melville.all.mb58.gz 26.16MB Kongsberg multibeam vendor format
0438_20100917_223945_Melville.all.mb58.gz 26.53MB Kongsberg multibeam vendor format
0439_20100917_230959_Melville.all.mb58.gz 26.12MB Kongsberg multibeam vendor format
0440_20100917_233954_Melville.all.mb58.gz 26.50MB Kongsberg multibeam vendor format
0441_20100918_000958_Melville.all.mb58.gz 26.28MB Kongsberg multibeam vendor format
0442_20100918_003956_Melville.all.mb58.gz 26.03MB Kongsberg multibeam vendor format
0443_20100918_010945_Melville.all.mb58.gz 26.31MB Kongsberg multibeam vendor format
0444_20100918_013948_Melville.all.mb58.gz 26.45MB Kongsberg multibeam vendor format
0445_20100918_020945_Melville.all.mb58.gz 26.80MB Kongsberg multibeam vendor format
0446_20100918_023947_Melville.all.mb58.gz 26.37MB Kongsberg multibeam vendor format
0447_20100918_030943_Melville.all.mb58.gz 26.44MB Kongsberg multibeam vendor format
0448_20100918_033953_Melville.all.mb58.gz 26.22MB Kongsberg multibeam vendor format
0449_20100918_040956_Melville.all.mb58.gz 26.06MB Kongsberg multibeam vendor format
0450_20100918_043944_Melville.all.mb58.gz 26.41MB Kongsberg multibeam vendor format
0451_20100918_050949_Melville.all.mb58.gz 26.31MB Kongsberg multibeam vendor format
0452_20100918_053956_Melville.all.mb58.gz 26.27MB Kongsberg multibeam vendor format
0453_20100918_060956_Melville.all.mb58.gz 26.23MB Kongsberg multibeam vendor format
0454_20100918_063954_Melville.all.mb58.gz 26.39MB Kongsberg multibeam vendor format
0455_20100918_070957_Melville.all.mb58.gz 26.28MB Kongsberg multibeam vendor format
0456_20100918_073954_Melville.all.mb58.gz 26.38MB Kongsberg multibeam vendor format
0457_20100918_080946_Melville.all.mb58.gz 26.63MB Kongsberg multibeam vendor format
0458_20100918_083949_Melville.all.mb58.gz 26.62MB Kongsberg multibeam vendor format
0459_20100918_090956_Melville.all.mb58.gz 26.40MB Kongsberg multibeam vendor format
0460_20100918_093955_Melville.all.mb58.gz 26.47MB Kongsberg multibeam vendor format
0461_20100918_100953_Melville.all.mb58.gz 26.42MB Kongsberg multibeam vendor format
0462_20100918_103943_Melville.all.mb58.gz 26.68MB Kongsberg multibeam vendor format
0463_20100918_110945_Melville.all.mb58.gz 26.63MB Kongsberg multibeam vendor format
0464_20100918_113953_Melville.all.mb58.gz 26.21MB Kongsberg multibeam vendor format
0465_20100918_120943_Melville.all.mb58.gz 26.38MB Kongsberg multibeam vendor format
0466_20100918_123944_Melville.all.mb58.gz 40.05MB Kongsberg multibeam vendor format
0467_20100918_130954_Melville.all.mb58.gz 39.51MB Kongsberg multibeam vendor format
0468_20100918_133952_Melville.all.mb58.gz 39.85MB Kongsberg multibeam vendor format
0469_20100918_140959_Melville.all.mb58.gz 39.63MB Kongsberg multibeam vendor format
0470_20100918_143946_Melville.all.mb58.gz 40.22MB Kongsberg multibeam vendor format
0471_20100918_150950_Melville.all.mb58.gz 39.99MB Kongsberg multibeam vendor format
0472_20100918_153948_Melville.all.mb58.gz 39.98MB Kongsberg multibeam vendor format
0473_20100918_160950_Melville.all.mb58.gz 39.83MB Kongsberg multibeam vendor format
0474_20100918_163943_Melville.all.mb58.gz 40.12MB Kongsberg multibeam vendor format
0475_20100918_170947_Melville.all.mb58.gz 40.18MB Kongsberg multibeam vendor format
0476_20100918_173944_Melville.all.mb58.gz 40.87MB Kongsberg multibeam vendor format
0477_20100918_180956_Melville.all.mb58.gz 40.10MB Kongsberg multibeam vendor format
0478_20100918_183950_Melville.all.mb58.gz 40.41MB Kongsberg multibeam vendor format
0479_20100918_190950_Melville.all.mb58.gz 40.25MB Kongsberg multibeam vendor format
0480_20100918_193944_Melville.all.mb58.gz 40.46MB Kongsberg multibeam vendor format
0481_20100918_200949_Melville.all.mb58.gz 40.75MB Kongsberg multibeam vendor format
0482_20100918_203945_Melville.all.mb58.gz 40.81MB Kongsberg multibeam vendor format
0483_20100918_210953_Melville.all.mb58.gz 40.76MB Kongsberg multibeam vendor format
0484_20100918_213954_Melville.all.mb58.gz 40.56MB Kongsberg multibeam vendor format
0485_20100918_220945_Melville.all.mb58.gz 36.13MB Kongsberg multibeam vendor format
0486_20100918_233538_Melville.all.mb58.gz 41.18MB Kongsberg multibeam vendor format
0487_20100919_000545_Melville.all.mb58.gz 40.78MB Kongsberg multibeam vendor format
0488_20100919_003533_Melville.all.mb58.gz 41.07MB Kongsberg multibeam vendor format
0489_20100919_010532_Melville.all.mb58.gz 41.14MB Kongsberg multibeam vendor format
0490_20100919_013536_Melville.all.mb58.gz 34.15MB Kongsberg multibeam vendor format

Metadata Files: 1

Files File Size Description
MV1011_Multibeam.xml NGDC created ISO metadata

Ancillary Files: 1

Files File Size Description
xbt.tar.gz 395.1KB Expendable Bathythermograph (XBT) data